SL-8 R/B, 3131

Orbit data source: Space-Track

SL-8 R/B, 3131 is space debris in LEO originally from a launch on Tue, 20 Feb 1968 UTC launched from the Plesetsk Missile And Space Complex (PKMTR). Debris objects in space refer to the collection of defunct objects orbiting the Earth. Examples of debris include non-operational satellites, rocket bodies, and fragments generated from explosions, collisions, or faulty payload assembly.

Loading next visibility...
Identifier
3131, 1968-011B
Orbit
LEO
Country
Flag of CISCIS
Related business
Manufacturer
Yuzhnoe
Mission
Spacecraft
Bus & Motor
S3, Unknown motor
Mass
1,434 kg wet, 1,434 kg dry
Launch date (UTC)
1968-02-20 (58 years ago)
Launch vehicle
Unknown
Launch site
Plesetsk Missile And Space Complex (PKMTR)
Object type
Payload
Rocket body
Debris
Shape & HBR
Unknown
Radar Cross Section
Large (>1 m²)

Expand to show TLE details & history
Last TLE update: 18 hours ago

TLE from 18 hours ago
0 SL-8 R/B
1 03131U 68011B   25287.96064273 -.00000104  00000-0 -21607-3 0  9991
2 03131  74.0477 120.8392 0014299  12.0732 348.0697 13.18027570773046
Epoch: 2025-10-14T23:03Z
TLE epoch observation values (Epoch: 2025-10-14T23:03:19.531Z)
Latitude
-0.00001°
Longitude
111.26625°
Altitude
1,184.138 km
Speed
7.267 km/s
True Right ascension
08h 03m 21s
True Declination
0° 00' 00"
Sunlit
Object was in daylight at epoch
Visualization orbit readout
Latitude
Unknown
Longitude
Unknown
Altitude
Unknown
Speed
Unknown
Apparent Right ascension
Unknown
Apparent Declination
Unknown
Sunlit
N/A
Visualization observer readout
Local Sidereal Time
11:37:46
Azimuth
Unknown
Elevation
Unknown
Doppler factor
Unknown
Orbital elements
Apogee altitude
1,200.841 km
Perigee altitude
1,179.197 km
Semi-major axis
7,568.156 km
Eccentricity
0.00143
Inclination
74.0477°
RAAN
120.8392°
Arg. of periapsis
12.0732°
True anomaly
348.03577°
Mean anomaly
348.0697°
Eccentric anomaly
348.05274°
Mean motion
3.29654 °/min
Orbital period
109.21 mins
BSTAR
-0.00021607
Loading maneuver chart data...
Computing Atmospheric mass density...
Loading historical data...
Loading historical data...
Loading historical data...
Loading historical data...
Loading historical data...
Loading historical data...
Loading historical data...
Other satellites on launch #11 in the year 1968 (1968-02-20 UTC)

Documentation

Showing up to 5 results
|